Hourly Data Report for August 10, 2022

MIRAMICHI RCS
NEW BRUNSWICK
Current Station Operator: ECCC - MSC

47°00'34.000" N
65°27'54.000" W
33.00 m
8100989
71744
ACQ

Download Data

Hourly Data (August 2022)
Hourly Data Report for August 10, 2022
TIME
LST
Temp Definition
°C
Dew Point Definition
°C
Rel Hum Definition
%
Precip. Amount Definition
mm

Wind Dir Definition
10's deg

Wind Spd Definition
km/h
Visibility Definition
km
Stn Press Definition
kPa
Hmdx Definition


Wind Chill Definition


Weather Definition


00:00 13.7 11.8 88 0.0 36 5   101.42     LegendNANA
01:00 13.1 11.7 91 0.0 35 6   101.41     LegendNANA
02:00 12.7 11.5 92 0.0 34 4   101.42     LegendNANA
03:00 12.2 11.0 92 0.0 35 3   101.45     LegendNANA
04:00 12.4 11.2 92 0.0 35 5   101.45     LegendNANA
05:00 12.2 10.8 91 0.0 33 2   101.49     LegendNANA
06:00 12.8 12.3 97 0.0 1 4   101.52     LegendNANA
07:00 14.9 13.3 90 0.0 3 3   101.54     LegendNANA
08:00 16.5 13.4 82 0.0 1 6   101.55     LegendNANA
09:00 18.2 13.4 74 0.0 3 8   101.53     LegendNANA
10:00 18.5 15.0 80 0.0 5 10   101.52     LegendNANA
11:00 18.3 15.3 83 0.0 8 13   101.50     LegendNANA
12:00 18.4 15.1 81 0.0 9 8   101.47     LegendNANA
13:00 17.8 15.0 83 0.0 12 12   101.45     LegendNANA
14:00 18.7 15.1 80 0.0 9 8   101.38     LegendNANA
15:00 19.9 15.4 75 0.0 5 9   101.34     LegendNANA
16:00 20.2 14.9 71 0.0 7 9   101.30     LegendNANA
17:00 20.0 15.7 76 0.0 9 11   101.26     LegendNANA
18:00 20.1 16.4 79 0.0 7 11   101.23 25   LegendNANA
19:00 19.2 16.5 84 0.0 10 12   101.22     LegendNANA
20:00 18.4 16.2 87 0.0 9 7   101.19     LegendNANA
21:00 18.0 16.4 90 0.0 13 5   101.18     LegendNANA
22:00 17.6 16.0 90 0.0 17 6   101.15     LegendNANA
23:00 17.3 15.9 91 0.0 29 2   101.15     LegendNANA

Notes on Data Quality.

Legend

  • E = Estimated
  • M = Missing
  • NA = Not Available*
  • [empty] = Indicates an unobserved value
Date modified: